Location: Central Falls
(41.8900°N, 71.3929°W)
Time: 11:08:23
(UTC+00:00)

A-11 Canister half - Pass Details

Date: 06 December 2023
Orbit: 1526 x 1682 km, 47.3° (Epoch: 20 February)

Event Time Altitude Azimuth Distance (km) Brightness Sun altitude
Rises 23:59:18 0° 239° (WSW) 4,917 12.6 -29.9°
Reaches altitude 10° 00:02:26 10° 239° (WSW) 3,936 11.9 -30.5°
Maximum altitude 00:12:37 87° 153° (SSE) 1,683 9.0 -32.4°
Enters shadow 00:14:25 67° 71° (ENE) 1,796 9.0 -32.7°
Drops below altitude 10° 00:22:43 10° 65° (ENE) 3,904 - -34.3°
Sets 00:25:50 0° 66° (ENE) 4,876 - -34.8°
